Preview of NWS' New Version of Forecast
This preview is not operational and should not be used for support decisions.

Regional Weather Roundup (RWR)

Issued by National Weather Service (NWS)

                            
000
ASUS42 KTBW 180916
RWRFL 
FLORIDA REGIONAL WEATHER ROUNDUP
NATIONAL WEATHER SERVICE TAMPA BAY RUSKIN FL
500 AM EDT THU APR 18 2019

NOTE: "FAIR" INDICATES FEW OR NO CLOUDS BELOW 12,000 FEET WITH NO
SIGNIFICANT WEATHER AND/OR OBSTRUCTIONS TO VISIBILITY.

FLZ001>010-012>015-112-114-115-181000-
PANHANDLE FLORIDA
  
CITY           SKY/WX    TMP DP  RH WIND       PRES   REMARKS
PENSACOLA      MOCLDY    70  69  97 S16       29.88F                  
PENSACOLA NAS  MOCLDY    70  69  97 SE14      29.87F                  
MILTON NAS     FAIR      63  63 100 SE7       29.88F                  
CRESTVIEW      FAIR      61  59  93 CALM      29.91F                  
DUKE FIELD     FAIR      64  64 100 SE6       29.90F                  
VALPARAISO     FAIR      68  65  90 SE9       29.89F                  
MARY ESTHER    PTCLDY    69  65  90 S10       29.88F                  
PANAMA CITY    FAIR      60  58  92 E5        29.92F                  
TYNDALL AFB    FAIR      63  60  92 SE6       29.93F                  
APALACHICOLA   FAIR      66  62  87 SE6       29.95F                  

STATION/POSITION SKY/WX   TEMP    WIND        PRES    WAVE   SWELL
                          AIR SEA DIR/SP/G            HT/PER HT/PER
                          (F)     (DEG/KT/KT) (MB)    (FT/S) (FT/S)
30.1N   87.6W                                 1011.9    2/ 5
29.2N   88.2W                     130/ 14/ 16 1011.4F   3/ 4
PANAMA CITY BEAC           70 71  140/ 11/ 14 1013.6F
TOWER C          NOT AVBL

$$
FLZ011-016>038-118-127-128-134-139-239-181000-
NORTH FLORIDA
  
CITY           SKY/WX    TMP DP  RH WIND       PRES   REMARKS
MARIANNA       FAIR      62  59  90 CALM      29.92F                  
TALLAHASSEE    FAIR      62  59  90 SE7       29.96F                  
PERRY          FAIR      64  61  92 SE6       29.98F                  
LIVE OAK       CLOUDY    64  64 100 CALM      29.98F                  
CROSS CITY     FAIR      60  59  97 CALM      29.99F                  
LAKE CITY      MOCLDY    61  61 100 CALM      30.00F                  
GAINESVILLE    FAIR      63  59  87 CALM      30.03F                  
PALATKA        CLOUDY   N/A N/A N/A CALM      30.01F                  
MAYPORT NAS    FAIR      69  66  90 SE7       30.01F                  
JACKSONVILLE   MOCLDY    62  60  93 CALM      30.00F                  
JAX NAS        MOCLDY    70  64  81 S6        30.01F                  
JAX CECIL      CLOUDY    55  55 100 CALM      30.01F                  
FERNANDINA BEA FAIR      65  64  96 SE6       30.01F                  
ST AUGUSTINE   LGT RAIN  67  65  93 S3        30.02F                  
PALM COAST     CLOUDY    64  62  93 CALM      30.02S                  

STATION/POSITION SKY/WX   TEMP    WIND        PRES    WAVE   SWELL
                          AIR SEA DIR/SP/G            HT/PER HT/PER
                          (F)     (DEG/KT/KT) (MB)    (FT/S) (FT/S)
SHELL POINT      NOT AVBL
KEATON BEACH               64     100/  6/  6 1015.1F
CEDAR KEY                  71     130/ 14/ 15 1015.7F
FERNANDINA                 69 71  130/  3/  5 1016.8F
30.7N   81.3W                 68                N/A     2/ 7
MAYPORT                    68 71  140/  3/  4 1016.3F
31.4N   80.9W              69 67  140/  8/ 10 1016.4F   2/ 8   2/ 8
ST AUGUSTINE               71 71  180/  4/  5 1016.4F

$$
FLZ040-043>046-052-053-057-058-063-144-181000-
INTERIOR CENTRAL FLORIDA
  
CITY           SKY/WX    TMP DP  RH WIND       PRES   REMARKS
OCALA          FAIR      61  59  93 CALM      30.01F                  
LEESBURG       FAIR      67  62  84 E8        30.01F                  
SANFORD        MOCLDY    67  63  87 SE3       30.01S                  
ORLANDO EXEC   FAIR      66  62  87 E5        30.01S                  
ORLANDO INTL   MOCLDY    68  62  81 SE5       30.01F                  
KISSIMMEE      MOCLDY    67  63  87 E5        30.02S                  
WINTER HAVEN   FAIR      67  64  90 E6        30.01F                  
LAKELAND       FAIR      64  59  82 CALM      30.00F                  
BARTOW         FAIR      64  63  94 NE3       29.99F                  
SEBRING        PTSUNNY   64  60  88 CALM      30.00S                  
OKEECHOBEE     FAIR      59  59 100 NE3       30.00S                  

$$
FLZ041-047-054-059-064-141-147-181000-
EAST CENTRAL FLORIDA
  
CITY           SKY/WX    TMP DP  RH WIND       PRES   REMARKS
DAYTONA BEACH  FAIR      65  64  97 E3        30.01F                  
DELAND         FAIR      61  59  94 CALM      30.01S                  
JFK SPACE CTR  FAIR      71  62  72 SE3       30.00F                  
CAPE CANAVERAL FAIR      72  59  64 SE8       30.00S                  
PATRICK AFB    FAIR      73  60  63 SE5       30.01S                  
MELBOURNE      MOCLDY    69  61  75 CALM      30.01S                  
VERO BEACH     FAIR      71  60  68 SE8       30.00F                  
FT PIERCE      FAIR      70  61  73 SE6       30.00F                  
STUART         FAIR      70  61  73 CALM      30.02S                  

STATION/POSITION SKY/WX   TEMP    WIND        PRES    WAVE   SWELL
                          AIR SEA DIR/SP/G            HT/PER HT/PER
                          (F)     (DEG/KT/KT) (MB)    (FT/S) (FT/S)
28.5N   80.2W              76     140/ 12/ 16 1016.7F   3/ 8   2/ 8
28.9N   78.5W              74 77  110/ 14/ 17 1017.5F   4/ 8   2/ 8
TRIDENT PIER               74 77  130/  7/ 10 1017.4F
28.4N   80.5W                 77                N/A     3/ 4
27.5N   80.2W                 76                N/A     3/ 9

$$
FLZ050-056-061-142-242-148-248-149-249-151-251-155-255-
160-260-181000-
WEST CENTRAL FLORIDA
  
CITY           SKY/WX    TMP DP  RH WIND       PRES   REMARKS
CRYSTAL RIVER  FAIR      59  59 100 CALM      30.00S                  
INVERNESS      FAIR      61  61 100 CALM      30.01S                  
BROOKSVILLE    CLOUDY    67  61  81 SE6       30.00S                  
CLEARWATER AIR CLOUDY    70  61  73 SE7       29.98F                  
ST PETE CLEARW CLOUDY    70  62  76 SE9       29.99S                  
TAMPA INTL     MOCLDY    70  61  73 SE7       29.99F                  
TAMPA EXEC     CLOUDY    64  61  88 CALM      30.00F                  
PLANT CITY     MOCLDY    66  63  88 CALM      30.02S                  
MACDILL AFB    CLOUDY    69  62  79 SE6       29.99S                  
PETER O KNIGHT CLOUDY    70  64  83 SE6       30.00S                  
ST PETERSBURG  CLOUDY    71  64  78 SE14      29.97S                  
SARASOTA       FAIR      66  61  84 E9        29.96F                  
VENICE         FAIR      66  63  88 E6        29.98F                  

STATION/POSITION SKY/WX   TEMP    WIND        PRES    WAVE   SWELL
                          AIR SEA DIR/SP/G            HT/PER HT/PER
                          (F)     (DEG/KT/KT) (MB)    (FT/S) (FT/S)
27.3N   84.2W                 75                N/A     2/ 3
CLEARWATER BEACH           71 77  110/  5/  9 1015.5F
MIDDLE TAMPA BAY           68     140/ 11/ 14 1015.5S
VENICE                     67 78   90/  8/  9 1014.9F

$$
FLZ066-069-070-075>078-162-262-165-265-181000-
SOUTHWEST FLORIDA AND KEYS
  
CITY           SKY/WX    TMP DP  RH WIND       PRES   REMARKS
PUNTA GORDA    FAIR      61  59  93 E3        30.00F                  
FT MYERS       FAIR      64  62  93 CALM      29.97F                  
SOUTHWEST INTL FAIR      64  61  90 NE5       29.98F                  
NAPLES         FAIR      66  64  93 NE6       29.97F                  
MARCO ISLAND   FAIR      65  62  90 NE5       29.98F                  
IMMOKALEE      FAIR      61  59  94 CALM      29.97S                  
MARATHON       FAIR      80  71  74 E6        29.94F                  
KEY WEST NAS   MOCLDY    78  71  79 E12       29.94F                  
KEY WEST INTL  FAIR      78  71  79 E13       29.95S                  

STATION/POSITION SKY/WX   TEMP    WIND        PRES    WAVE   SWELL
                          AIR SEA DIR/SP/G            HT/PER HT/PER
                          (F)     (DEG/KT/KT) (MB)    (FT/S) (FT/S)
NAPLES                     68 80   70/  4/  7 1015.0S
DRY TORTUGAS               78     130/ 16/ 17 1013.6F
SAND KEY                   78                 1014.0F
SOMBRERO KEY               78                 1013.4F

$$
FLZ067-068-071>074-168-172>174-181000-
SOUTHEAST FLORIDA 
  
CITY           SKY/WX    TMP DP  RH WIND       PRES   REMARKS
W PALM BEACH   FAIR      75  67  76 E14       29.99F                  
FT LAUDER-EXEC FAIR      74  68  81 E6        29.97F                  
FT LAUDERDALE  FAIR      76  69  79 E10       29.97S                  
POMPANO BEACH  FAIR      77  69  76 E8        29.98S                  
PEMBROKE PINES FAIR      73  68  84 E6        29.99S                  
OPA LOCKA      FAIR      74  69  85 E7        29.98S                  
MIAMI          FAIR      76  70  82 E10       29.97F                  
WEST KENDALL   FAIR      76  70  82 SE8       29.97S                  
HOMESTEAD      FAIR      77  70  81 E9        29.96S                  

STATION/POSITION SKY/WX   TEMP    WIND        PRES    WAVE   SWELL
                          AIR SEA DIR/SP/G            HT/PER HT/PER
                          (F)     (DEG/KT/KT) (MB)    (FT/S) (FT/S)
PORT EVERGLADES            77      90/  5/  9 1015.1
VIRGINIA KEY               78 81   90/ 10/ 12 1014.3F
LAKE WORTH                 75 78  100/ 12/ 14 1016.6F
SETTLEMENT POINT           75      80/ 11/ 12 1016.4R

$$